sat.trackr.live / text

‹ back to catalog

UMBRA-07

NORAD 58297 · 2023-174AT

PAYLOAD ACTIVE UNKNOWN

§ Identity

Operator
Country
US
Launch date
2023-11-11
Launch site
AFWTR
Launch vehicle
Mass (kg)
RCS (m²)

External: N2YO · Heavens-Above · Gunter

§ Orbital elements

Epoch: 2026-05-25T03:51:05.419296Z

Period
95.45 min
Inclination
97.3809°
Eccentricity
0.0004633
Mean motion
15.08629972 rev/d
Perigee alt
537.2 km
Apogee alt
543.6 km
Semi-major
6,918.5 km
B*
6.3629e-4
RAAN
201.8014°
Arg perigee
139.7476°
Mean anomaly
220.4097°
Rev number
13,994

§ Raw data

UMBRA-071 58297U 23174AT  26145.16047939  .00009907  00000+0  63629-3 0  99982 58297  97.3809 201.8014 0004633 139.7476 220.4097 15.08629972139947

JSON: /api/v1/satellites/58297 · /tle

For live sub-satellite position, see the globe view (requires WebGL).

§ Visibility from observer

Set your observer location to see the next 7 days of passes ≥ 10°. The values pass through the URL so the page stays shareable.

No JS? Fill the form by hand. The geolocation button needs JavaScript.